Flag for Germany Weather past 2 weeks in Demmin, Mecklenburg-Western Pomerania, Germany

Now
73 °F

Passing clouds.


Feels Like: 75 °F
Forecast: 58 / 81 °F
Wind: 3 mph from Northeast

Location: Greifswald

Current Time: Aug 31, 2015 at 4:10:30 PM

Latest Report: Aug 31, 2015 at 3:00 PM


Visibility: 10 mi

Pressure: 29.92 "Hg

Humidity: 72%

Dew point: 63 °F

Location of DemminLocation

Historic Weather in Demmin — Graph

°F

Demmin temperature yesterday

Maximum temperature yesterday: 73 °F (at 3:00 PM)
Minimum temperature yesterday: 52 °F (at 6:00 AM)
Average temperature yesterday: 63 °F

Past Weeks' High & Low Weather Summary

 TemperatureHumidityPressure
High78 °F (Aug 21, 2:00 PM)99% (Aug 21, 6:00 AM)30.35 "Hg (Aug 21, 6:00 AM)
Low51 °F (Aug 22, 6:00 AM)29% (Aug 21, 2:00 PM)29.71 "Hg (Aug 25, 1:00 AM)
Average65 °F72%30.05 "Hg
* Reported Aug 16 3:00 PM — Aug 31 3:00 PM, Demmin, Weather by CustomWeather, © 2015

Note: Actual official high and low records may vary slightly from our data, if they occured in-between our weather recording intervals... More about our weather records

Advertising

Demmin weather history for previous 24 hours

 ConditionsComfort  
Time TempWeatherWind HumidityBarometerVisibility
3:00 PM
Mon, Aug 31
73 °FPassing clouds.3 mph72%29.92 "Hg10 mi
2:00 PM73 °FPartly sunny.3 mph75%29.93 "Hg11 mi
1:00 PM74 °FScattered clouds.2 mph71%29.93 "Hg12 mi
12:00 PM74 °FPartly sunny.1 mph65%29.94 "Hg14 mi
10:00 AM68 °FPartly sunny.2 mph74%29.96 "Hg11 mi
9:00 AM64 °FPartly sunny.2 mph83%29.97 "Hg11 mi
8:00 AM63 °FOvercast.2 mph87%29.98 "Hg9 mi
7:00 AM61 °FOvercast.2 mph91%29.99 "Hg8 mi
5:00 AM62 °FPassing clouds.5 mph85%30.01 "Hg12 mi
4:00 AM63 °FPassing clouds.5 mph81%30.02 "Hg12 mi
3:00 AM61 °FPassing clouds.3 mph86%30.03 "Hg12 mi
2:00 AM61 °FPassing clouds.3 mph88%30.06 "Hg7 mi
1:00 AM62 °FPassing clouds.3 mph87%30.05 "Hg9 mi
11:00 PM
Sun, Aug 30
62 °FThunderstorms. Overcast.2 mph90%30.09 "Hg7 mi
10:00 PM62 °FThunderstorms. Overcast.2 mph87%30.09 "Hg9 mi
9:00 PM63 °FLight rain. Overcast.3 mph87%30.09 "Hg9 mi
8:00 PM67 °FLight rain. Overcast.3 mph66%30.09 "Hg14 mi
7:00 PM69 °FPartly sunny.5 mph67%30.09 "Hg19 mi
6:00 PM71 °FPartly sunny.3 mph66%30.10 "Hg16 mi
4:00 PM71 °FOvercast.3 mph71%30.12 "Hg16 mi
Weather by CustomWeather, © 2015

See weather overviewHow to use our weather pages